Regional Weather Roundup
Issued by NWS

Home | Current Version | Previous Version | Graphics & Text | Print | Product List | Glossary On
Versions: 1 2 3 4 5 6 7 8 9 10 11 12 13 14 15 16 17 18 19 20 21 22 23 24 25 26 27 28 29 30 31 32 33 34 35 36 37 38 39 40 41 42 43 44 45 46 47 48 49 50
000
ASUS45 KBOU 021710
RWRCO

WEATHER ROUNDUP FOR COLORADO
NATIONAL WEATHER SERVICE DENVER/BOULDER CO
1100 AM MDT THU JUL 02 2015

NOTE: "FAIR" INDICATES FEW OR NO CLOUDS BELOW 12000 FEET WITH NO
SIGNIFICANT WEATHER AND/OR OBSTRUCTIONS TO VISIBILITY.

COZ001>005-013-030-031-021800-
...NORTHWEST COLORADO...

CITY           SKY/WX    TMP DP  RH WIND       PRES   REMARKS
CRAIG          SUNNY     80  50  34 VRB3      30.23F
HAYDEN         SUNNY     75  46  35 SE3       30.25S
MEEKER         SUNNY     77  51  40 VRB5      30.24S
MOUNT WERNER   NOT AVBL
STEAMBOAT SPGS SUNNY     74  51  44 SW3       30.26F
WALDEN         MOSUNNY   68  50  52 CALM      30.37F
$$

COZ006>008-011-021800-
...WEST CENTRAL VALLEYS...

CITY           SKY/WX    TMP DP  RH WIND       PRES   REMARKS
GRAND JUNCTION PTSUNNY   85  52  32 W7        30.10F
MONTROSE       CLOUDY    83  53  35 N6        30.19F
EAGLE          MOSUNNY   75  48  38 CALM      30.26F
RIFLE          MOSUNNY   81  51  35 VRB3      30.16F
DELTA          CLOUDY    86  50  28 SE6       30.14F
NUCLA          CLOUDY    79  52  38 CALM      30.25S
$$

COZ017>023-064>068-021800-
...SOUTHWEST COLORADO...

CITY           SKY/WX    TMP DP  RH WIND       PRES   REMARKS
DURANGO        PTSUNNY   76  51  41 CALM      30.23F
CORTEZ         SUNNY     77  53  43 E9        30.19F
PAGOSA SPRINGS PTSUNNY   72  47  41 CALM      30.32F
TELLURIDE      PTSUNNY   67  51  55 CALM      30.47S
WOLF CREEK PAS NOT AVBL
$$

COZ009-010-012-014-032>034-037-058>063-021800-
...CENTRAL COLORADO...

CITY           SKY/WX    TMP DP  RH WIND       PRES   REMARKS
ASPEN          PTSUNNY   74  50  42 N3        30.32S
BUENA VISTA    PTSUNNY   68  51  54 CALM      30.36S
COPPER MTN     CLOUDY    61  41  48 W14G21    30.66S
BERTHOUD PASS  FAIR      50  41  71 N6        30.71R
COTTONWOOD PAS NOT AVBL
GUNNISON       PTSUNNY   70  48  46 SW3       30.37F
KREMMLING      SUNNY     73  41  31 CALM      30.33F
LEADVILLE      PTSUNNY   64  48  56 S10       30.47S
MONARCH PASS   PTSUNNY   55  45  67 W12       30.76S
SALIDA         PTSUNNY   72  51  48 E12       30.40S
SUNLIGHT       PTSUNNY   64  52  63 CALM      30.59S
WILKERSON PASS PTSUNNY   57  43  58 CALM      30.63R
$$

COZ069>075-021800-
...SAN LUIS VALLEY/SANGRE DE CRISTO MOUNTAINS...

CITY           SKY/WX    TMP DP  RH WIND       PRES   REMARKS
ALAMOSA        CLOUDY    68  52  56 E6        30.34R
LA VETA PASS   RAIN      48  46  93 MISG      30.54S VSB<1/4
SAGUACHE       PTSUNNY   66  52  59 S6        30.37S
$$

COZ035-036-038>040-021800-
...NORTHERN COLORADO FRONT RANGE...

CITY           SKY/WX    TMP DP  RH WIND       PRES   REMARKS
DENVER INTL AP MOSUNNY   71  54  54 SW10      30.24F
DMNS CITY PARK   N/A     68  55  62 SW8G14    30.23F
AURORA         MOSUNNY   68  55  63 SW9       30.26F
FRONT RANGE AP MOSUNNY   70  57  64 SW8       30.25F
ERIE MUNI ARPT SUNNY     71  57  61 S9        30.22F
BOULDER MUN AP SUNNY     72  55  56 SE5       30.21F
CENTENNIAL     MOSUNNY   65  54  67 SW10      30.26F
BROOMFIELD     PTSUNNY   68  57  68 S9        30.25F
FORT COLLINS   SUNNY     70  57  64 SW6       30.23S
LONGMONT       SUNNY     75  57  52 S6        30.22F
$$

COZ041-046-047-076>085-087-088-021800-
...PIKES PEAK/PALMER DIVIDE AND SOUTHERN FOOTHILLS...

CITY           SKY/WX    TMP DP  RH WIND       PRES   REMARKS
COLO. SPRINGS  PTSUNNY   69  54  58 N12       30.30F
A. F. ACADEMY  PTSUNNY   63  54  73 N9        30.31F
ELLICOTT       PTSUNNY  N/A N/A N/A NE7       30.28S
FALCON         PTSUNNY   66  53  62 N7        30.34S
FORT CARSON    NOT AVBL
LIMON          MOSUNNY   69  54  58 W5        30.23F
MONUMENT HILL  MOSUNNY   63  52  67 W5        30.34F
TRINIDAD       CLOUDY    68  59  73 N10       30.27R
$$

COZ042>045-048>051-090-091-021800-
...NORTHEAST COLORADO...

CITY           SKY/WX    TMP DP  RH WIND       PRES   REMARKS
GREELEY ARPT   SUNNY     73  57  56 SW9       30.21F
AKRON          SUNNY     70  59  68 W15G24    30.19S
BURLINGTON     CLOUDY    67  58  72 NE12      30.11F
WRAY           SUNNY     79  57  47 NW12G17   30.12S
STERLING       SUNNY     77  59  53 NW17G23     N/A
HOLYOKE        MOSUNNY   79  61  53 NW16      30.12S
FORT MORGAN    SUNNY     72  56  58 SW13      30.20F
$$

COZ086-089-092>099-021800-
...SOUTHEAST COLORADO...

CITY           SKY/WX    TMP DP  RH WIND       PRES   REMARKS
PUEBLO         CLOUDY    75  55  49 NE13      30.22S
LA JUNTA       PTSUNNY   76  58  53 NE16G22   30.17F
LAMAR          MOSUNNY   79  59  50 NE14      30.10S
SPRINGFIELD      N/A     78  61  55 NE16G25   30.13R
$$


USA.gov is the U.S. government's official web portal to all federal, state and local government web resources and services.